Wetbulb
52.05 53.10 52.93 49.77 45.57 50.17 43.45 42.81 42.54 46.98 52.23 56.61 58.46 57.95 59.07 59.18 65.03 66.79 67.67 68.61 69.01 70.60 70.70 71.31 71.49 71.56 71.87 71.36 71.51 71.51 71.41 71.16
51.84 52.64 53.75 50.80 52.72 44.49 43.64 38.69 37.05 46.58 47.23 47.97 53.74 56.46 57.77 56.61 54.81 64.95 67.81 68.74 68.97 69.64 70.76 71.20 71.85 71.32 71.67 71.96 71.21 71.69 71.57 72.45
48.36 47.56 47.23 47.95 46.19 45.86 45.77 44.59 40.46 41.59 44.97 54.33 54.14 56.46 56.38 57.93 62.07 66.11 67.18 68.06 68.64 68.92 70.87 71.20 71.66 71.34 70.65 70.59 70.74 71.65 71.64 72.45
45.79 51.09 52.86 51.74 48.24 46.60 42.11 42.53 44.93 44.10 45.51 55.83 57.33 58.13 58.73 59.58 61.38 63.40 67.06 68.07 68.46 69.01 68.80 69.18 70.58 71.08 70.62 71.04 71.61 71.67 71.57 72.48
43.12 48.07 47.99 47.77 47.90 48.13 46.18 44.86 42.39 42.12 46.67 56.93 57.66 57.81 59.37 59.51 62.39 64.75 66.82 66.72 67.84 68.13 67.89 67.38 69.90 70.62 70.46 71.14 71.88 71.31 72.96 72.01
40.32 44.42 46.89 45.95 48.40 48.45 45.01 40.71 43.59 44.49 48.53 52.23 56.23 55.44 57.94 59.21 61.66 66.32 66.58 66.24 66.41 67.33 67.29 67.93 68.99 70.37 70.50 71.01 71.78 72.60 71.28 73.09
46.28 48.30 48.34 47.77 49.08 48.96 46.27 45.68 42.82 47.62 50.86 51.73 55.45 55.75 57.15 58.29 59.27 66.42 66.12 66.03 65.54 66.44 66.61 69.08 69.87 70.66 70.41 70.47 71.29 72.92 72.30 71.96
45.77 49.30 48.39 47.42 49.19 49.92 49.88 49.74 49.11 49.47 47.60 56.93 58.60 58.42 57.72 58.96 65.40 65.39 66.04 66.76 67.26 68.12 69.09 70.07 70.52 70.51 70.65 70.41 71.68 73.14 72.11 71.95
40.28 47.81 47.69 44.09 47.47 48.52 48.52 49.18 48.67 46.50 50.39 56.95 57.07 59.22 58.55 61.43 64.49 65.75 66.83 67.30 67.84 68.31 69.19 69.77 70.49 70.83 70.15 71.88 73.11 71.77 71.74 72.16
41.98 43.61 39.17 47.34 51.51 52.64 50.61 51.24 51.00 50.50 52.26 54.84 57.73 58.80 61.65 63.03 63.35 66.52 67.21 67.85 68.12 68.90 69.60 70.57 71.61 71.96 71.95 73.67 71.88 71.90 71.77 72.08
42.19 41.78 45.39 49.51 52.22 53.24 50.69 51.76 61.11 59.21 54.82 53.78 58.05 63.03 60.76 63.84 65.10 66.33 67.18 68.83 68.93 70.06 70.79 71.75 71.98 72.64 73.12 72.68 72.65 72.36 71.92 71.44
45.52 41.30 40.25 49.40 57.21 58.65 57.05 51.21 62.02 62.97 63.43 63.17 61.09 57.28 59.49 63.47 67.74 68.74 69.27 69.91 69.08 70.17 71.31 72.15 72.37 73.43 72.83 72.41 72.36 71.77 71.43 71.27
50.27 45.11 49.18 56.65 59.74 58.81 46.24 51.72 61.47 62.76 63.51 63.61 61.81 61.44 63.44 66.46 68.28 69.26 68.45 69.85 70.49 70.50 71.15 71.79 73.04 73.74 72.46 72.66 71.91 72.71 71.52 70.47
48.09 43.86 42.31 57.52 60.59 54.38 59.03 61.89 62.25 62.89 63.11 63.83 63.57 65.60 66.61 66.45 67.17 68.46 69.55 69.84 71.31 70.44 71.33 72.76 73.50 73.40 72.68 72.44 72.34 70.91 71.29 68.68
50.00 49.46 55.58 56.59 55.83 58.55 60.67 59.85 62.27 61.54 63.42 64.02 63.85 64.87 66.69 65.99 65.54 67.87 69.64 69.38 71.15 71.86 71.92 72.97 73.43 73.19 71.18 68.79 69.87 68.79 68.88 68.16
49.84 54.35 56.53 59.56 60.80 61.05 61.22 58.70 60.36 64.06 64.60 64.55 63.92 65.79 66.36 66.64 67.04 67.98 69.10 68.66 69.60 71.35 69.77 68.72 69.33 69.42 68.72 68.43 67.80 67.66 66.94 67.00
52.11 54.96 57.70 57.75 58.71 60.62 60.28 62.22 62.47 66.27 66.76 66.61 66.44 65.92 66.61 66.93 67.49 68.10 67.89 68.62 70.65 70.36 69.41 68.50 68.95 68.70 68.23 67.91 67.99 67.62 66.88 66.56
49.97 56.80 55.29 56.66 58.75 60.95 59.34 57.85 57.06 63.06 65.22 63.95 64.43 65.28 67.39 67.91 68.18 67.97 69.01 68.92 68.04 67.06 67.91 67.37 67.73 68.38 68.92 68.60 68.60 67.44 65.49 65.17
58.25 59.88 57.42 58.45 59.26 61.04 60.53 57.74 62.10 64.38 63.91 62.75 63.41 63.81 64.64 64.13 64.47 63.80 59.84 62.04 59.86 62.72 65.14 66.94 68.57 68.30 69.41 69.57 69.76 67.95 65.91 65.19
MSLP
997.12 996.98 997.37 998.20 999.28 1000.36 1002.32 1003.29 1004.76 1005.83 1005.29 1003.40 1000.56 999.87 999.02 999.19 999.36 1000.25 1001.21 1001.84 1003.09 1004.21 1004.90 1005.97 1006.68 1007.27 1007.92 1008.80 1009.51 1010.16 1010.76 1011.20
996.78 996.85 997.12 997.87 998.82 1000.16 1001.57 1003.44 1004.51 1005.03 1005.04 1003.31 1001.54 1000.57 999.75 999.06 998.94 999.99 1000.94 1001.53 1002.23 1003.55 1004.70 1005.38 1006.01 1006.78 1007.62 1008.32 1009.15 1009.60 1010.05 1010.37
997.04 996.85 997.47 998.10 998.73 999.94 1001.28 1002.48 1003.46 1004.20 1004.13 1001.83 1002.05 1001.32 1000.55 1000.28 999.38 999.78 1000.60 1001.59 1002.34 1003.17 1004.19 1004.95 1005.53 1006.34 1007.36 1008.06 1008.68 1009.15 1009.52 1009.65
997.51 996.51 996.57 997.45 998.52 999.49 1001.12 1001.94 1002.12 1002.32 1002.54 1001.13 1001.69 1001.48 1001.06 1000.08 1000.86 1000.00 1000.68 1001.50 1002.39 1003.03 1003.64 1004.59 1005.34 1006.06 1006.88 1007.65 1008.08 1008.41 1008.76 1009.10
997.82 996.75 996.57 997.12 997.86 998.63 999.44 1000.10 1001.19 1002.01 1002.45 1002.13 1002.33 1001.23 1000.50 1000.21 1000.85 1001.08 1001.17 1001.70 1002.41 1003.26 1003.80 1004.22 1005.06 1005.81 1006.48 1007.13 1007.48 1007.92 1008.40 1009.02
998.17 997.34 996.85 996.89 997.09 997.60 998.61 999.79 1000.14 1000.45 1001.53 1001.63 1001.68 1001.39 1001.13 1000.51 999.85 1000.87 1001.05 1001.62 1002.26 1003.22 1003.75 1004.03 1004.50 1005.42 1006.04 1006.69 1007.10 1007.64 1008.23 1008.85
997.76 997.42 996.99 996.67 996.58 996.79 997.64 998.08 999.12 1000.10 999.84 999.88 1000.93 1001.20 1000.63 999.91 1000.36 1000.28 1000.85 1001.46 1002.09 1002.89 1003.49 1003.99 1004.45 1005.00 1005.54 1006.16 1006.87 1007.35 1007.96 1008.46
998.39 997.76 997.18 996.68 995.94 995.95 996.22 996.61 997.08 997.45 998.16 998.26 998.91 999.92 1000.40 999.84 999.52 999.92 1000.31 1000.58 1001.44 1002.34 1003.06 1003.77 1004.29 1004.82 1005.49 1006.02 1006.63 1007.11 1007.74 1008.36
999.24 998.41 997.71 996.89 995.90 995.69 995.75 995.79 996.14 996.72 996.58 997.49 998.16 998.50 998.40 998.20 998.59 999.07 999.78 1000.30 1000.84 1001.62 1002.51 1003.33 1003.90 1004.47 1005.08 1005.58 1006.21 1007.00 1007.56 1008.33
999.92 999.41 998.29 996.73 995.82 995.55 995.60 995.71 995.56 995.50 995.61 995.77 996.46 996.67 997.26 997.39 997.84 998.42 999.06 999.90 1000.50 1001.16 1001.98 1002.74 1003.52 1004.14 1004.65 1005.25 1006.02 1006.80 1007.61 1008.38
1000.12 999.93 998.85 997.68 996.84 996.73 996.51 996.84 996.80 995.88 995.25 994.85 995.68 996.24 997.25 996.97 997.25 997.81 998.43 999.31 999.97 1000.40 1001.21 1002.11 1002.85 1003.62 1004.46 1005.34 1005.78 1006.65 1007.39 1008.19
1000.31 1000.55 1000.21 999.63 998.59 997.84 996.96 997.92 997.76 997.07 996.75 996.14 995.87 997.46 997.95 997.34 997.07 997.81 998.30 998.88 999.74 1000.31 1000.98 1001.60 1002.27 1003.00 1004.08 1004.95 1005.74 1006.65 1007.65 1008.35
1001.36 1001.72 1001.27 1001.13 1000.08 998.66 998.73 999.81 998.28 997.80 997.72 997.51 998.01 998.14 997.90 997.32 997.57 998.00 998.60 998.82 999.42 999.97 1000.49 1000.97 1001.73 1002.48 1003.50 1004.45 1005.55 1006.53 1007.58 1008.36
1003.23 1003.03 1002.94 1002.63 1001.56 1002.45 1002.96 1000.57 999.08 998.25 997.87 998.74 998.83 998.63 998.83 998.37 998.11 998.51 998.91 999.30 999.44 999.89 1000.36 1000.71 1001.25 1002.25 1003.42 1004.51 1005.31 1005.88 1005.45 1008.17
1004.28 1003.84 1003.70 1003.89 1003.38 1003.13 1004.07 1003.03 1001.29 999.43 997.82 997.98 999.47 999.35 999.13 999.44 999.46 999.53 999.88 1000.03 1000.02 1000.21 1000.69 1001.27 1001.48 1002.08 1003.52 1004.61 1005.24 1006.54 1007.59 1008.37
1004.63 1004.05 1004.18 1003.86 1003.92 1003.65 1004.81 1004.22 1002.45 1001.02 998.88 998.94 999.03 999.54 999.61 999.85 999.93 1000.19 1000.68 1000.59 1000.96 1001.63 1002.25 1002.79 1003.16 1003.35 1003.87 1004.87 1005.71 1006.36 1007.43 1008.25
1005.27 1004.91 1004.66 1004.74 1003.55 1003.62 1003.46 1002.38 1001.89 1001.24 1000.22 999.92 999.85 1000.05 999.92 1000.22 1000.70 1000.87 1001.13 1001.73 1002.11 1002.50 1003.15 1003.57 1003.73 1004.08 1004.71 1005.28 1006.37 1006.93 1007.85 1008.47
1005.46 1005.11 1005.08 1004.39 1004.19 1004.36 1004.15 1003.82 1002.12 1003.29 1000.93 1000.56 1000.86 1001.36 1001.16 1001.49 1001.91 1002.34 1002.30 1002.63 1003.40 1003.95 1003.80 1004.15 1004.54 1004.54 1004.57 1004.74 1005.22 1006.28 1007.76 1008.51
1004.07 1003.56 1004.32 1005.15 1005.75 1005.69 1005.19 1005.99 1005.09 1002.11 1001.50 1001.56 1002.09 1002.57 1002.45 1003.06 1003.30 1003.55 1003.89 1004.02 1004.44 1004.97 1005.09 1005.30 1005.63 1005.11 1005.52 1005.59 1005.81 1006.19 1006.70 1007.99
Wind_Speed
10 7 3 7 5 11 3 5 3 6 4 9 17 13 6 11 15 20 18 15 16 17 16 15 15 14 13 12 10 11 12 10
12 8 7 9 6 2 3 4 5 4 4 8 6 8 8 2 1 14 17 18 17 16 16 14 14 11 12 11 10 12 12 11
6 7 9 3 4 3 1 4 3 5 8 10 2 6 8 13 10 19 16 16 15 13 17 14 14 14 13 12 11 10 8 10
9 9 13 9 11 9 6 9 5 5 4 3 5 5 3 15 18 9 11 14 13 13 13 14 13 14 15 12 11 10 7 8
11 4 5 9 8 6 6 3 6 3 4 5 6 13 11 17 12 2 13 11 13 13 12 9 14 13 12 10 11 7 6 7
8 8 6 7 9 10 6 2 6 5 6 5 7 15 14 16 16 12 14 11 12 12 11 10 9 13 11 11 8 7 8 9
10 8 8 7 9 12 10 10 6 9 7 11 14 18 18 14 9 12 11 10 11 12 9 9 9 9 10 8 9 10 10 10
7 8 10 11 12 6 14 14 8 8 6 12 14 17 13 15 15 13 14 12 13 14 12 12 13 11 9 8 8 11 9 9
6 8 10 8 6 6 6 5 3 6 11 13 9 7 10 9 12 14 15 13 16 17 15 13 13 13 11 8 8 9 10 8
6 5 8 5 6 9 8 8 10 8 4 5 17 13 8 7 9 14 13 13 15 15 14 14 12 11 8 8 9 8 10 12
5 5 7 7 6 3 4 3 13 15 7 5 7 13 6 9 6 10 10 12 15 16 16 15 15 12 10 9 11 10 12 12
2 7 8 3 13 12 7 5 9 15 16 12 13 8 2 4 10 9 7 10 14 15 14 16 16 15 13 13 12 11 10 10
2 2 2 8 15 12 2 5 4 11 9 14 10 3 5 8 9 7 5 6 8 16 16 17 16 15 15 14 13 12 10 4
2 2 5 10 10 7 13 7 4 7 10 9 6 8 7 7 8 7 6 5 5 10 11 13 15 13 12 12 10 11 13 9
5 3 1 2 6 4 19 17 11 1 7 8 3 6 7 5 3 4 7 3 4 7 8 6 6 11 12 8 13 13 13 12
1 2 4 2 2 4 6 5 16 22 2 3 2 9 8 6 6 6 4 4 4 8 7 6 5 5 11 12 11 12 13 12
5 7 6 8 5 3 9 18 20 10 7 9 10 8 7 6 5 6 6 7 9 7 7 8 6 8 11 11 10 9 10 9
7 4 5 5 7 5 6 11 30 26 13 14 17 16 14 13 10 11 6 5 8 4 2 0 2 4 10 13 13 11 9 7
6 7 4 5 4 9 5 15 30 3 9 9 9 7 11 6 7 9 9 11 9 6 6 4 3 4 5 7 10 11 11 10
Wind_Direction
239 243 157 270 201 212 240 292 104 194 288 306 268 307 190 172 164 152 144 136 128 150 151 153 160 167 163 167 163 168 179 184
217 211 210 190 237 350 323 208 269 171 167 252 288 304 302 156 328 131 135 145 146 143 153 156 156 158 150 153 161 173 181 189
196 179 190 251 302 315 178 168 188 152 244 193 233 345 11 10 107 138 145 147 146 146 150 160 157 157 156 164 169 187 180 186
237 215 183 178 200 198 147 284 224 154 260 96 105 114 51 39 10 120 136 140 144 145 148 151 162 160 163 177 174 191 173 163
322 334 161 177 217 225 214 225 253 141 199 71 90 57 59 65 317 260 138 138 144 148 156 158 156 167 161 173 178 162 148 144
209 213 190 203 200 212 205 206 243 238 170 165 120 119 133 168 226 177 152 152 148 154 158 158 149 150 157 166 167 152 150 146
264 288 304 283 210 202 203 234 198 154 166 184 178 175 197 204 219 140 148 149 151 157 156 151 140 141 150 145 159 150 152 148
283 296 294 292 295 234 206 218 231 240 239 178 208 203 211 207 157 156 165 158 152 154 145 146 150 148 151 151 146 156 148 161
269 287 285 288 271 291 292 282 203 220 227 150 207 193 184 166 160 166 169 163 155 156 154 154 155 155 163 162 146 157 154 133
214 278 264 250 261 268 263 268 283 277 235 197 188 201 189 173 157 164 159 161 159 156 155 156 155 159 159 153 153 148 145 137
164 228 263 323 318 52 95 21 6 10 318 239 105 89 51 120 112 161 165 164 165 163 162 160 162 163 155 152 151 139 143 143
172 201 231 17 339 326 257 20 11 32 24 2 118 100 243 55 85 76 118 145 161 166 163 166 171 167 159 162 153 153 137 143
6 127 312 344 335 315 309 194 48 58 38 40 44 121 162 100 91 106 90 89 154 166 172 175 171 169 172 164 158 144 140 130
90 71 300 19 1 46 331 324 60 87 79 37 64 66 59 47 76 95 106 80 96 149 159 166 168 156 154 155 145 144 146 142
166 209 111 304 173 291 335 322 321 77 93 95 307 140 122 116 121 134 131 123 76 107 99 86 130 149 129 137 128 125 140 140
147 75 140 204 81 27 259 292 330 304 110 184 264 168 150 136 127 98 94 88 70 91 86 61 53 103 128 135 137 144 141 137
338 310 350 45 23 301 322 326 338 290 39 28 46 38 75 114 126 127 106 66 44 77 113 128 136 125 140 143 148 137 137 137
219 188 189 251 199 160 96 24 326 291 50 43 45 36 41 41 37 32 53 84 66 52 58 46 132 163 154 154 150 144 142 138
225 208 195 344 309 298 111 165 240 323 56 43 34 50 56 43 31 73 63 71 86 50 9 330 268 163 170 163 152 147 146 154